RH
10 10 12 13 15 17 19 20 21 22 23 24 23 22 20 18 15 13 12 9 7 5 3 3 2 3 3 5 6 8 9 8 9 9 10 10 10 13 15 18 17 12 9 6 5 5 6 6 9 10 15 17 14 33 43 42 63 78 85 80 68 73 75 80 85 82 80 78 80 85 85 82 77 82 86 83 87 91 90 86 83 74 81 92 65 50 53 47
8 8 8 9 10 12 13 15 17 18 20 22 23 24 23 21 19 16 14 11 10 7 5 4 3 3 2 3 4 6 8 8 8 8 9 9 10 11 13 18 18 15 10 7 6 4 7 5 8 10 11 20 28 43 48 45 63 80 84 72 68 75 73 81 85 78 76 77 80 80 82 87 84 84 84 82 84 89 91 89 86 80 87 86 60 50 53 47
5 5 6 7 8 8 9 10 11 13 15 17 20 21 22 23 21 20 17 15 13 9 7 5 4 4 2 3 2 3 6 6 7 7 8 8 9 10 11 17 19 17 12 9 7 5 8 5 8 8 12 37 51 53 52 55 64 73 79 69 67 75 73 75 79 79 77 73 77 78 81 87 89 90 86 85 87 89 94 94 89 86 87 79 60 51 51 50
3 4 4 4 5 5 7 7 8 9 10 12 14 17 19 21 21 21 20 18 15 12 10 6 5 4 3 3 1 3 2 4 9 6 7 7 8 10 9 14 19 19 15 10 7 6 8 7 9 9 23 49 58 56 54 58 66 71 74 68 69 73 71 70 69 77 78 72 72 74 81 84 89 91 84 89 92 89 91 92 90 86 82 76 65 51 49 50
3 3 3 3 3 3 4 5 6 7 7 8 9 11 14 16 19 20 20 20 17 15 12 8 7 4 4 3 2 3 -0 9 17 7 5 7 6 9 9 12 18 21 17 11 7 7 11 11 8 12 32 47 47 52 51 56 68 71 70 69 72 69 69 67 61 70 77 73 69 73 79 79 86 86 82 91 91 87 87 89 91 83 75 75 69 54 48 49
3 3 3 3 2 3 3 3 4 4 5 6 7 8 9 12 14 16 18 19 18 16 14 11 8 5 4 2 3 3 1 14 21 9 5 7 5 8 8 10 15 21 19 13 8 8 14 16 11 18 36 38 36 41 40 49 63 65 66 69 70 66 67 63 57 63 73 76 71 72 75 75 84 86 86 86 81 87 87 89 93 78 68 73 72 56 47 47
3 3 3 3 2 2 2 2 3 3 3 4 5 6 7 8 10 12 15 15 17 16 15 13 9 7 4 3 3 2 2 10 14 9 8 6 5 7 7 9 12 19 21 15 10 10 16 20 20 29 35 27 27 31 30 42 56 62 64 64 65 65 64 60 57 58 67 80 78 72 70 71 79 88 92 80 74 85 84 89 94 72 62 70 69 55 46 46
3 4 3 3 3 2 2 2 2 2 2 3 3 4 5 7 7 9 11 13 14 13 14 13 11 8 4 3 2 2 6 6 5 8 9 6 6 6 6 9 10 15 21 18 13 11 15 24 27 30 27 19 22 26 30 41 51 60 63 62 63 63 62 58 54 52 62 78 78 70 69 71 77 89 94 79 79 88 84 91 89 65 60 67 63 51 46 45
3 4 3 3 3 3 3 3 2 2 2 2 2 3 3 5 6 7 8 10 11 11 12 10 11 8 5 5 -0 6 16 8 2 4 8 8 6 5 6 8 8 13 19 20 17 10 15 27 28 25 20 17 22 25 31 39 43 51 58 62 62 60 61 57 50 46 58 77 78 71 73 77 79 88 91 82 89 96 92 95 81 60 57 60 58 49 44 44
4 4 4 4 4 4 4 3 3 3 2 2 2 3 3 3 4 5 6 8 9 9 9 8 10 7 6 4 -1 16 23 9 3 3 4 9 8 6 5 7 8 11 17 21 19 12 19 29 25 24 23 21 25 26 29 33 39 47 51 57 60 59 58 53 47 43 54 76 80 73 73 78 79 81 79 77 92 102 96 89 74 61 59 57 57 51 44 45
4 4 4 4 4 4 4 5 6 4 4 3 2 2 2 3 3 3 5 6 7 8 8 7 6 5 7 2 5 28 28 11 7 3 1 6 8 7 4 6 7 8 15 21 21 17 24 30 27 25 22 23 25 26 27 26 37 50 51 53 57 59 57 49 45 44 56 75 77 72 72 75 78 77 72 74 90 103 94 79 72 69 62 60 63 53 45 51
4 4 4 4 4 4 4 7 8 7 7 5 4 3 2 3 2 3 4 4 5 6 6 6 5 5 4 -0 7 23 21 12 9 3 2 4 8 11 5 4 7 7 13 23 24 20 25 32 30 24 21 25 23 22 25 23 32 50 53 52 51 53 52 45 46 48 58 73 74 72 72 70 75 76 73 75 86 99 91 75 78 79 67 67 69 53 46 56
4 3 4 4 4 4 4 7 10 10 10 9 8 4 3 3 2 3 2 3 4 3 5 5 5 2 2 12 16 9 7 9 7 4 3 2 8 14 7 4 7 5 14 30 32 25 27 30 24 22 25 28 24 24 29 27 31 44 48 47 46 46 45 44 50 51 58 75 75 73 76 72 73 75 72 75 82 91 86 76 81 84 79 75 70 54 47 53
3 3 3 4 4 4 4 7 11 11 11 12 11 8 6 3 2 3 2 3 3 2 5 2 5 3 1 19 18 2 4 6 5 7 4 2 9 16 9 4 6 5 12 32 39 33 28 19 14 22 27 28 33 35 33 30 31 35 39 42 42 39 38 43 49 49 58 75 76 75 80 75 73 72 68 74 81 81 82 86 87 84 86 84 72 57 49 49
2 3 3 3 4 4 5 9 12 12 12 13 13 12 9 4 3 3 2 4 2 3 4 1 5 2 -0 17 13 -0 4 3 4 9 5 3 11 19 12 3 6 6 9 27 39 34 23 11 9 22 27 28 40 43 34 30 29 28 33 38 38 35 38 47 49 48 59 74 74 72 76 78 78 73 69 76 78 73 77 91 93 81 82 89 79 62 52 49
3 3 3 4 5 5 7 11 13 13 13 13 13 13 12 7 3 3 3 3 2 3 3 3 5 -0 9 33 24 2 1 7 9 9 7 6 14 23 15 4 5 5 8 21 30 27 20 12 9 19 26 27 35 38 32 28 26 25 31 34 32 32 41 50 49 46 60 74 76 71 69 74 76 69 73 78 72 71 79 91 94 85 85 90 80 67 58 51
5 4 5 6 6 9 10 12 14 13 13 13 13 14 12 8 3 4 4 2 3 4 2 3 4 1 14 33 24 3 8 24 21 10 10 16 24 28 19 9 4 4 8 13 19 23 22 15 12 18 24 25 29 31 27 24 22 22 28 31 29 28 32 41 45 46 59 70 73 73 68 68 67 65 72 78 78 80 86 95 95 89 92 91 80 75 66 52
7 7 9 8 10 12 11 13 13 12 13 12 13 14 12 8 4 4 3 4 3 -0 5 4 1 9 16 19 22 20 28 37 28 15 15 24 31 27 23 19 8 4 8 12 18 25 26 19 16 19 21 24 25 24 23 20 18 21 26 27 27 26 24 31 42 46 55 60 64 72 71 65 62 65 71 78 87 85 80 92 98 87 85 84 79 77 70 57
9 10 11 10 12 11 11 13 11 13 13 13 16 13 11 5 4 7 4 4 4 11 32 22 6 27 34 25 36 49 48 37 27 27 26 26 29 27 28 27 15 9 14 20 24 28 29 23 21 21 19 22 22 21 22 20 18 19 24 24 24 25 21 28 42 48 53 54 56 66 70 66 64 71 77 76 85 92 83 85 95 91 80 75 73 75 74 64
11 13 12 12 13 11 13 12 11 15 13 17 17 10 18 19 24 35 16 -0 4 19 48 38 20 39 43 34 44 48 42 31 33 47 41 28 31 36 36 30 22 22 25 28 27 29 30 24 23 22 17 18 20 21 22 21 22 21 22 21 21 22 18 22 40 53 54 50 51 58 63 68 70 72 79 78 81 91 91 85 93 98 87 80 73 73 78 67
13 14 14 15 14 12 14 12 14 17 15 21 13 11 37 39 39 52 28 10 11 9 28 34 28 40 41 42 47 37 33 34 43 58 50 35 38 45 45 36 31 32 30 28 27 31 30 23 22 21 16 16 17 23 26 25 28 27 23 20 19 20 18 19 32 46 51 48 51 54 57 64 68 66 71 80 79 80 89 91 94 95 89 92 85 76 80 73
15 17 17 15 15 15 15 14 16 16 16 18 7 17 42 28 20 32 21 27 34 13 14 21 21 35 43 47 44 33 36 36 40 56 53 41 42 46 45 38 35 34 27 26 28 30 29 24 22 19 17 17 16 22 28 31 34 30 24 22 20 18 20 24 28 35 43 44 45 50 52 54 61 67 68 69 67 67 75 79 85 93 90 93 92 84 81 78
18 19 18 18 18 16 16 17 17 15 15 12 11 32 39 13 9 16 12 34 44 22 14 12 13 29 37 39 32 25 32 29 33 54 51 40 45 48 47 40 34 32 26 25 27 27 27 23 21 19 16 20 20 20 26 35 36 31 26 22 20 18 18 23 24 27 35 35 34 40 44 44 49 61 65 63 63 61 60 60 73 93 95 88 87 85 80 79
21 21 21 22 19 18 19 17 16 14 12 9 13 28 24 11 15 13 13 36 41 27 20 15 19 29 32 35 29 21 27 24 32 54 47 38 48 50 48 42 34 31 26 25 26 25 24 20 21 20 16 19 21 21 28 36 34 29 27 20 19 19 15 18 20 22 29 30 29 34 37 35 38 47 53 60 68 67 63 59 61 76 87 89 90 88 82 83
23 22 22 23 21 22 19 16 18 13 10 14 18 18 15 17 18 8 17 38 35 24 20 13 18 29 31 33 28 23 29 22 29 50 42 36 48 47 43 42 37 33 29 28 27 24 21 19 21 20 17 21 26 29 32 33 28 25 24 20 19 18 15 20 23 22 26 27 28 31 29 27 30 35 40 50 61 69 74 69 60 61 71 80 88 88 83 82
25 24 23 22 22 22 18 19 17 9 18 30 25 19 19 19 14 10 29 44 28 17 19 15 19 27 25 27 28 27 29 20 26 44 38 38 48 41 35 38 36 34 32 32 29 23 20 20 22 22 21 26 31 33 32 28 24 20 20 21 22 20 16 20 23 22 23 22 24 26 24 24 25 28 36 48 57 64 75 76 66 61 61 65 72 77 79 77
31 29 25 23 22 21 21 21 15 19 41 42 24 19 21 16 11 20 41 39 18 15 23 22 25 28 23 26 29 24 22 20 26 36 35 40 45 35 30 30 32 34 31 30 29 23 20 23 26 27 29 31 29 29 30 27 22 19 18 20 23 25 21 19 20 21 19 19 22 23 23 23 26 38 50 58 65 68 76 81 72 62 57 61 64 66 73 74
34 31 28 26 23 22 22 19 20 34 44 32 21 20 19 14 15 33 48 33 13 19 26 23 25 26 22 25 25 18 19 21 23 29 33 36 36 31 29 27 29 32 29 27 26 21 21 27 32 32 32 30 25 25 29 28 23 21 21 20 23 28 26 23 23 21 18 18 19 21 23 22 30 51 61 64 72 76 80 84 79 67 56 56 63 64 69 78
34 33 30 26 24 23 23 19 21 31 29 20 20 19 16 18 27 43 48 28 15 21 23 21 22 23 23 24 21 18 20 20 19 24 28 30 30 27 26 26 28 28 29 32 27 20 22 30 36 34 29 27 24 24 30 30 26 26 29 27 25 27 26 26 26 22 20 19 16 18 20 22 36 51 56 63 72 74 78 82 86 82 66 57 61 62 67 76
36 35 33 31 29 25 24 23 20 23 23 19 19 18 17 26 39 45 37 23 19 20 22 22 20 21 21 20 19 17 19 21 22 24 23 23 26 26 25 27 29 25 27 33 28 23 24 30 36 32 26 24 22 25 30 32 29 27 31 32 29 28 25 25 26 22 21 21 17 18 17 21 41 54 56 65 71 72 74 76 83 85 75 68 67 64 67 68
37 36 34 35 36 32 34 36 27 21 21 21 22 25 29 38 43 37 25 21 20 18 20 21 19 20 19 17 18 17 18 21 22 22 22 22 23 25 24 26 30 26 25 30 27 25 27 29 33 31 28 26 23 26 29 31 34 30 30 32 29 27 25 25 26 23 23 22 17 19 18 15 33 56 64 68 74 75 76 79 83 85 83 81 80 75 69 68
39 38 36 35 36 36 39 42 35 28 28 29 29 32 40 45 37 25 19 19 18 18 19 19 19 19 16 15 17 18 19 20 22 22 21 22 21 22 22 23 26 25 24 28 24 22 26 28 30 32 33 32 27 28 28 31 35 31 29 30 25 23 25 24 23 22 24 21 16 20 19 12 27 56 69 72 76 77 80 81 71 72 77 73 79 83 72 68
40 39 38 36 34 32 32 33 33 33 34 32 31 36 44 40 26 20 18 15 17 20 19 17 18 17 14 14 16 17 18 18 21 21 19 20 19 19 22 24 24 22 24 29 23 19 22 26 29 31 34 35 30 27 29 31 34 31 28 27 23 20 23 24 22 21 22 19 18 18 18 23 44 65 70 72 76 76 82 74 47 48 55 49 69 83 66 66
40 41 41 40 38 34 32 30 29 31 32 32 37 45 45 32 21 22 20 17 20 20 19 19 16 15 15 17 17 17 18 19 21 21 19 20 19 19 22 25 26 24 25 27 22 19 20 22 27 28 29 32 31 30 29 27 28 30 28 26 23 19 21 24 21 19 19 18 18 16 15 26 47 65 69 73 77 73 77 66 40 42 45 42 72 77 49 56
40 40 40 41 40 37 36 34 30 29 31 37 45 47 40 28 22 23 22 21 21 17 18 19 15 14 16 18 20 18 17 20 21 20 20 19 19 20 21 22 26 29 28 25 22 20 18 18 23 24 23 27 30 31 29 25 22 24 26 25 22 19 18 19 16 16 16 16 15 15 23 37 49 62 69 73 77 69 66 61 44 45 48 51 77 79 50 51
36 37 39 41 40 39 39 37 34 31 33 43 48 40 32 29 26 26 26 25 23 19 18 18 15 14 15 18 20 19 20 22 21 20 20 20 21 23 23 24 26 30 30 27 24 21 18 18 20 22 21 23 25 24 25 24 20 19 23 24 22 20 18 17 15 14 13 15 14 14 34 55 58 63 68 71 77 73 69 64 49 45 50 55 74 81 67 64
33 43 48 43 39 37 35 36 36 32 34 43 43 32 26 28 30 29 28 26 26 22 18 18 17 15 15 17 17 18 20 20 20 22 21 22 24 26 26 26 25 28 31 30 27 22 19 19 20 21 20 21 23 22 22 24 21 20 20 21 21 20 18 17 17 16 13 15 13 11 30 50 52 59 67 67 73 77 76 68 52 47 48 52 71 84 77 72
32 49 53 42 34 32 30 34 35 33 37 40 34 29 28 29 31 31 28 26 26 24 23 22 20 19 18 16 16 17 18 18 19 21 20 21 24 25 28 27 24 26 28 28 28 24 20 20 20 21 20 21 23 22 21 22 21 22 20 20 22 18 17 19 21 21 16 14 13 12 24 38 41 54 66 65 67 76 81 68 51 51 51 46 62 85 90 81
33 48 53 46 35 28 27 30 33 36 42 40 30 28 31 30 32 31 26 26 27 27 27 24 20 21 21 19 18 16 16 18 18 18 18 21 24 26 29 29 26 25 25 27 29 27 24 22 19 20 20 21 22 19 18 19 19 21 21 20 20 17 17 20 22 23 17 15 17 12 21 38 46 58 72 73 73 82 89 72 49 50 53 45 47 67 88 90
37 43 46 44 30 22 25 30 34 37 38 37 32 32 33 32 33 32 27 27 30 29 27 24 21 22 22 22 21 19 18 18 18 19 20 22 25 27 27 27 27 25 21 25 29 27 25 23 20 21 20 19 20 17 17 18 16 18 21 20 19 18 19 18 19 21 16 17 17 12 30 59 67 69 77 81 84 93 95 72 48 45 46 42 39 42 58 77
43 41 38 36 24 19 28 32 32 33 32 34 35 35 36 34 33 34 30 28 29 29 28 26 23 22 23 23 21 21 20 19 19 21 22 24 27 28 26 24 25 25 22 24 26 26 27 25 20 19 19 19 18 18 20 22 20 18 18 19 18 17 18 18 18 17 14 16 14 15 45 78 80 75 80 83 88 98 99 73 47 44 44 41 40 35 38 59
41 39 36 29 17 21 33 32 28 30 31 34 36 37 35 34 34 34 34 32 30 30 31 30 28 26 26 25 23 23 22 22 24 24 25 30 30 27 26 23 22 26 26 23 23 25 29 29 23 20 20 20 20 21 20 22 24 21 19 19 17 15 17 18 18 17 14 15 13 21 58 88 85 77 82 87 91 99 101 78 47 43 46 43 44 39 32 47
40 37 32 17 12 28 36 30 28 29 31 32 35 37 36 36 37 34 33 34 32 31 31 32 32 31 30 29 26 26 27 28 29 27 28 32 29 25 25 22 23 30 32 28 26 25 27 29 27 24 23 22 23 23 21 21 23 22 21 21 19 17 17 15 18 21 19 16 13 23 63 95 92 82 83 88 94 99 97 76 50 44 47 43 45 46 37 41
40 35 31 13 11 31 35 30 32 31 32 34 33 34 35 36 38 37 36 36 34 33 34 33 33 32 32 32 30 30 32 32 32 31 31 34 31 26 24 22 26 32 33 32 31 28 27 29 28 26 23 22 23 22 21 23 23 20 19 21 21 22 20 18 21 25 25 23 14 17 55 91 93 86 87 85 88 96 95 78 56 46 45 42 41 47 47 45
44 38 35 20 15 29 31 28 33 32 32 35 33 32 34 34 36 37 38 37 36 36 35 34 34 33 32 33 32 32 32 33 34 33 32 33 30 25 25 24 25 26 25 24 23 26 32 34 35 35 28 25 28 27 24 23 21 21 20 21 25 24 22 24 24 23 25 24 22 34 68 97 97 87 84 84 85 92 96 88 69 53 48 45 41 45 52 51
46 37 36 31 26 29 28 26 33 35 33 35 34 34 34 33 34 35 36 38 38 37 37 35 34 34 33 33 33 33 33 33 34 34 33 34 32 27 25 24 23 22 22 20 18 24 33 33 37 45 40 33 36 34 30 25 19 20 23 23 26 24 23 27 22 21 26 23 34 62 79 89 97 89 80 84 87 86 92 95 89 76 60 47 41 43 49 53
44 33 32 37 34 32 31 31 34 33 33 37 36 34 35 34 34 33 34 38 38 37 40 39 37 37 36 36 36 36 37 37 37 38 37 36 35 29 25 26 26 23 22 22 20 26 34 30 29 37 37 31 32 29 28 28 22 22 24 22 24 24 26 28 21 24 32 27 46 81 80 74 90 91 84 89 91 88 92 97 98 92 77 60 50 45 46 52
34 25 21 28 36 37 33 34 35 33 33 34 33 34 35 36 38 38 36 38 40 40 41 41 41 43 42 42 41 41 44 44 43 45 43 40 38 32 30 33 30 24 26 28 25 25 32 32 28 30 30 27 26 24 23 26 25 24 24 22 24 26 26 26 24 30 35 31 53 87 89 83 91 92 92 97 97 97 97 97 100 98 92 85 74 63 60 59
35 28 15 16 29 30 22 25 36 38 33 32 38 40 37 35 37 39 40 40 39 40 44 44 42 43 45 48 50 51 52 50 49 50 48 45 42 36 35 38 36 33 34 34 30 23 25 34 32 27 29 27 24 24 22 22 23 23 24 23 23 26 29 31 32 34 36 40 60 84 92 93 93 93 97 99 98 100 99 98 102 97 90 92 91 83 76 68
37 32 21 25 31 25 24 35 40 37 32 33 39 39 38 41 39 40 45 46 43 41 42 45 44 46 51 55 57 59 59 57 58 54 46 43 43 39 40 43 42 43 40 36 36 27 24 38 39 27 27 28 24 23 22 21 22 21 23 22 22 26 31 33 36 40 51 66 78 87 94 97 93 93 98 99 99 101 100 98 95 84 76 82 93 95 90 83
18 14 15 34 35 21 29 43 43 42 41 41 42 38 40 42 38 40 41 39 48 50 43 45 49 48 54 59 59 59 55 54 56 51 42 43 44 44 48 48 44 48 47 40 38 32 28 37 38 27 26 27 24 24 22 21 21 21 22 22 21 24 29 35 42 47 62 85 92 90 95 98 96 97 99 99 99 101 98 89 78 70 68 72 79 86 87 87
13 8 9 31 36 24 31 42 42 45 39 30 35 41 42 39 37 45 43 33 42 50 46 52 55 51 58 63 59 54 50 49 50 44 41 43 43 42 45 44 42 49 54 46 39 36 37 38 31 23 23 24 22 25 25 21 18 18 22 23 23 29 38 46 53 54 62 82 89 87 93 98 99 99 100 99 100 101 97 85 71 67 67 65 67 70 72 74
Wind_Speed
11 11 11 11 11 11 11 11 11 12 12 13 13 13 13 13 14 14 14 14 13 13 13 13 14 14 15 16 16 16 16 15 15 15 15 17 16 14 12 10 9 9 10 11 13 14 14 15 15 14 12 11 8 6 6 5 4 3 4 8 3 6 7 7 7 4 5 10 11 12 15 18 17 18 20 19 19 19 15 15 12 12 18 18 18 20 22 25
10 11 11 11 12 11 11 11 11 12 12 12 13 13 14 14 14 14 14 14 14 14 13 13 13 13 15 15 16 16 16 16 16 15 16 17 16 15 14 11 10 10 8 9 11 13 13 14 15 14 13 11 8 7 7 6 5 4 5 9 5 7 6 6 7 8 4 13 12 12 12 15 16 17 19 17 19 20 17 15 12 15 20 19 19 21 20 23
10 10 10 11 11 12 12 12 12 12 12 12 12 13 13 14 14 14 14 14 14 14 14 14 14 14 13 14 16 15 16 16 17 17 17 17 16 16 15 12 11 10 9 9 11 13 13 13 14 15 14 10 9 9 7 6 5 4 5 5 3 4 6 7 7 11 4 12 12 12 11 12 15 16 17 16 18 19 18 17 15 18 21 18 20 22 20 20
10 10 10 10 11 11 12 12 12 12 13 12 12 12 13 13 13 14 14 14 14 14 14 15 14 14 13 14 14 14 15 13 17 19 17 17 16 16 15 14 13 12 12 12 14 15 13 14 15 15 14 11 11 12 9 8 5 4 5 2 1 2 4 6 7 8 4 11 11 11 10 10 13 15 15 16 15 16 17 17 15 17 18 16 19 23 21 19
10 10 10 10 10 11 12 12 12 12 13 13 13 12 13 13 13 14 14 14 14 13 14 14 15 15 13 14 12 14 12 7 16 21 16 17 17 16 16 15 15 13 13 15 16 17 16 14 16 16 15 12 12 13 12 10 8 6 6 2 1 1 3 5 5 5 2 7 12 10 9 9 12 14 15 17 15 14 16 15 13 14 14 14 17 22 22 20
11 11 10 10 10 10 11 12 12 12 12 13 13 13 13 13 13 13 14 14 13 13 14 14 15 14 14 14 12 13 11 10 18 20 17 19 18 16 17 17 17 15 15 15 16 18 17 16 17 17 15 13 13 15 12 11 11 7 6 4 3 1 2 3 4 2 4 3 12 12 10 9 11 12 14 16 14 15 16 14 13 12 13 14 17 21 22 20
12 12 11 11 10 10 10 11 11 12 12 13 13 14 13 13 13 13 14 14 13 13 13 13 14 14 14 13 13 13 13 16 20 16 15 19 18 17 18 18 18 17 16 16 16 18 19 18 17 15 14 13 12 15 12 12 14 9 6 6 5 3 2 1 3 3 2 2 8 11 11 11 11 11 13 14 13 14 14 14 14 13 15 16 18 22 22 20
13 13 12 12 12 11 10 10 10 10 11 13 13 14 14 13 13 13 14 14 13 12 12 13 13 13 14 13 13 10 11 19 21 15 15 17 19 19 19 19 19 18 16 16 15 16 19 18 17 14 13 12 11 13 13 12 14 13 9 6 6 5 2 1 1 2 3 4 5 9 13 14 13 11 13 14 13 14 14 14 15 15 19 19 20 24 23 20
14 14 14 13 13 12 11 11 10 10 10 12 13 13 14 14 13 13 14 14 13 12 12 13 12 13 13 12 12 7 11 21 20 18 16 15 19 20 19 18 19 19 17 16 14 16 18 17 17 14 11 11 11 13 14 14 13 14 13 9 7 6 4 3 1 2 4 3 4 8 15 16 14 13 13 14 14 14 16 16 15 17 20 22 23 23 22 21
16 16 15 15 14 13 12 11 10 9 9 11 12 13 14 14 14 13 14 14 13 12 12 12 12 13 12 13 10 5 14 21 17 19 18 16 18 20 20 18 19 19 18 17 15 16 17 15 15 13 12 10 10 14 16 15 10 10 13 12 10 8 7 5 3 3 4 4 4 7 15 16 14 14 14 15 14 14 17 17 16 18 21 23 24 23 22 21
18 18 17 17 16 15 14 12 11 9 8 10 11 12 14 14 14 13 13 14 13 13 12 12 12 12 12 13 10 7 17 20 17 19 18 17 17 18 20 19 19 20 19 18 15 16 17 14 13 12 13 10 9 12 16 16 10 8 12 12 13 11 9 7 5 4 6 6 4 6 12 16 15 15 15 15 15 16 17 18 18 19 22 24 24 23 23 22
19 18 19 18 18 17 15 13 11 10 9 9 10 12 13 14 14 14 14 13 13 13 12 12 12 12 12 12 12 14 19 18 17 16 16 17 17 18 20 19 20 21 19 18 16 16 17 14 15 14 12 10 8 10 14 16 13 9 11 12 12 12 11 10 7 5 7 7 5 6 9 15 15 14 15 14 16 18 18 19 19 20 21 24 24 23 24 23
19 19 19 19 19 18 16 13 12 11 10 9 10 10 12 13 14 14 14 13 13 13 12 12 11 12 12 10 15 19 17 16 16 14 15 17 16 17 20 20 21 23 21 19 16 16 18 18 20 17 11 10 7 10 13 13 14 12 11 12 11 12 14 12 9 6 7 8 6 6 8 13 13 13 15 15 16 18 20 20 20 21 22 23 24 23 23 23
21 20 19 19 19 17 16 14 12 11 11 11 10 10 11 13 13 14 14 13 13 12 12 12 11 12 13 13 16 18 16 16 15 13 13 15 16 16 19 22 23 24 23 21 17 18 21 22 23 18 13 13 8 11 13 12 14 14 12 14 13 13 14 14 11 8 8 8 7 5 7 10 12 14 16 16 17 18 19 21 20 21 23 23 23 24 24 23
21 21 20 19 18 17 16 13 12 12 12 12 11 10 10 11 13 14 13 13 12 11 11 11 11 12 12 12 15 15 16 15 13 12 13 14 15 15 18 21 23 25 26 22 19 22 23 21 25 18 11 15 11 9 12 13 16 17 15 16 16 15 11 12 12 10 8 8 9 6 5 8 12 14 15 16 17 19 20 21 21 20 22 23 23 24 24 23
21 20 20 19 18 16 14 13 12 12 12 13 11 11 11 10 12 13 13 13 12 10 10 10 11 12 10 10 14 15 14 14 13 13 13 14 15 16 18 20 23 25 26 25 23 25 24 21 23 19 10 14 12 8 12 15 17 19 19 17 18 18 11 10 12 11 9 9 10 7 4 6 11 12 13 16 17 19 21 21 21 20 21 23 23 24 25 24
20 20 19 18 17 16 14 13 13 12 13 12 11 11 11 10 10 11 12 12 11 10 9 9 10 12 11 12 14 14 12 13 15 15 15 14 15 18 19 20 22 23 24 26 25 23 22 21 21 18 13 14 14 13 15 18 19 21 21 18 17 19 15 12 13 13 11 9 9 7 5 6 9 10 11 16 20 21 21 21 20 21 22 23 22 23 25 25
19 19 19 18 17 16 15 14 14 13 12 11 10 10 10 8 8 10 10 10 10 8 6 7 9 9 10 11 10 10 12 14 15 15 16 16 16 18 18 18 20 22 23 23 22 20 19 19 18 16 15 16 16 17 18 18 19 20 21 20 17 18 19 14 13 14 13 10 11 9 7 7 7 8 9 13 19 19 20 22 20 19 21 22 22 23 25 26
19 19 18 18 17 16 15 15 14 13 10 9 9 9 8 5 4 7 9 10 9 7 1 6 11 6 4 8 8 10 14 16 16 15 16 17 17 17 16 17 18 18 19 19 19 19 18 16 17 17 18 19 19 21 21 16 15 18 20 20 19 19 19 12 11 13 13 11 12 10 8 8 7 9 11 11 14 16 18 20 19 18 19 20 21 23 25 26
19 19 18 17 16 16 16 14 12 10 7 7 8 6 5 4 5 6 7 8 11 13 7 8 13 7 3 7 10 15 18 17 15 14 15 16 16 15 15 16 16 16 15 16 17 18 18 18 19 21 19 20 19 20 21 16 11 14 18 21 21 18 18 14 11 11 12 11 11 9 8 9 8 10 13 11 11 15 16 18 19 17 18 19 20 22 24 25
19 18 18 16 16 15 14 13 10 8 6 7 7 3 3 2 2 3 4 3 6 13 12 11 14 10 8 10 11 13 14 13 13 13 15 15 14 14 14 15 15 16 16 15 14 16 19 20 20 21 19 17 18 18 19 16 12 12 16 22 21 17 15 14 13 10 10 12 10 9 9 8 8 10 13 11 9 12 13 15 18 18 17 18 19 21 23 24
18 17 17 16 15 14 12 11 8 8 8 8 6 2 2 4 8 6 3 1 4 10 11 13 19 17 14 16 14 13 13 13 13 14 16 15 14 14 14 15 16 15 16 16 15 17 20 22 20 19 18 15 16 19 16 13 14 13 13 19 22 18 11 9 10 10 9 12 12 11 10 8 9 10 10 9 7 8 10 11 14 16 17 17 18 20 23 24
17 17 16 16 15 12 11 9 8 9 9 8 5 1 2 3 4 4 4 5 3 9 8 11 17 14 12 13 14 15 14 12 14 16 18 16 16 14 13 15 16 15 17 19 18 18 19 21 20 17 18 16 15 18 16 12 16 15 12 17 21 20 14 8 10 13 11 12 12 11 11 10 10 11 9 8 8 7 9 11 12 14 16 16 18 19 21 23
17 17 16 16 14 12 11 9 9 9 8 7 4 1 2 1 2 4 8 5 3 7 6 9 13 10 9 10 12 15 14 11 15 17 18 17 17 13 12 15 16 16 18 19 18 18 16 17 19 18 18 18 16 17 18 15 16 17 15 17 17 19 19 11 8 13 13 12 10 8 10 12 12 12 11 12 11 8 8 11 12 13 15 16 17 19 20 22
17 17 16 15 14 13 12 10 10 9 6 5 3 2 1 1 1 5 8 5 6 5 5 11 15 12 13 15 13 13 11 9 13 16 16 17 17 13 12 14 17 17 17 18 18 18 16 14 17 19 19 18 17 17 19 18 16 17 18 18 16 18 19 9 5 10 12 13 13 10 9 11 14 14 14 14 12 10 9 11 12 13 16 18 19 20 22 22
18 17 16 15 13 12 12 11 10 8 6 3 2 2 1 2 3 8 6 6 9 5 3 9 11 11 13 14 13 11 11 11 11 14 14 15 16 13 11 13 17 17 15 16 17 18 17 14 15 18 18 19 18 17 19 19 17 16 17 19 17 15 18 16 9 10 12 12 16 16 10 8 12 12 11 13 11 10 10 10 12 13 16 17 18 19 22 23
19 18 17 16 14 12 11 10 8 7 5 2 2 2 2 5 8 10 3 6 9 8 8 10 7 9 8 11 15 11 12 15 13 11 12 16 15 13 13 13 15 15 13 15 16 18 18 15 16 17 16 19 20 18 18 19 19 15 14 19 17 12 14 18 14 15 15 9 10 15 13 9 11 9 8 11 10 10 11 10 11 13 14 16 17 18 22 24
19 19 18 17 15 13 11 8 7 5 2 2 1 2 4 8 10 7 2 3 9 8 9 9 6 9 8 11 16 10 8 12 13 13 13 15 14 12 12 12 14 14 13 16 16 16 18 15 15 18 17 18 20 19 16 19 19 12 8 15 16 11 10 12 13 16 17 14 11 14 14 11 10 11 8 9 10 9 10 10 10 12 13 15 17 18 22 24
18 19 19 18 16 14 12 9 6 4 2 2 3 3 7 9 6 2 4 1 7 6 8 7 7 9 8 12 14 9 7 7 9 13 14 13 14 15 12 9 13 14 14 17 16 14 17 16 14 17 19 18 18 18 15 19 21 11 5 10 13 14 15 13 13 15 16 17 15 14 17 13 7 10 10 8 9 8 8 9 9 10 12 14 17 19 21 23
18 18 18 18 17 15 13 11 9 6 5 5 6 7 9 7 3 3 5 1 5 8 7 4 7 11 12 14 14 10 10 7 5 11 12 11 13 15 12 9 10 14 16 18 19 14 14 15 14 15 19 18 17 18 17 18 21 13 5 8 12 14 18 16 15 16 15 15 16 16 19 16 5 6 10 9 8 7 7 8 7 8 10 11 14 19 21 22
15 16 17 17 17 16 15 13 12 10 8 8 9 10 8 4 3 6 1 4 5 8 8 5 8 12 13 14 14 12 11 9 8 11 12 11 13 12 12 11 9 12 16 17 19 16 12 13 14 15 16 16 16 19 19 18 19 16 9 10 14 14 15 15 15 16 11 11 18 19 19 20 11 7 10 10 7 6 6 6 5 6 9 11 13 16 18 19
12 14 15 15 15 14 13 11 11 10 10 9 9 9 5 3 5 2 3 4 4 5 6 6 8 13 15 14 13 13 12 10 11 13 13 13 15 14 14 14 12 14 16 17 19 19 15 14 15 15 15 15 16 19 22 18 17 18 15 14 16 14 12 12 12 13 11 12 18 20 21 19 11 12 12 10 8 6 6 6 6 7 10 14 15 15 18 20
9 11 12 14 13 11 11 10 9 9 9 9 9 8 2 5 2 3 3 2 3 3 4 6 10 12 13 12 12 13 13 11 13 14 13 13 14 14 13 12 11 14 13 14 20 21 17 15 16 16 17 18 18 19 25 22 18 20 20 19 17 11 9 9 9 9 11 14 15 18 21 13 12 15 11 11 9 6 5 5 8 7 8 14 13 14 20 22
7 8 9 11 10 9 9 9 8 8 9 10 8 1 5 3 2 2 1 2 2 5 5 7 10 12 13 12 12 13 13 11 12 13 12 14 13 14 14 11 10 11 8 12 21 23 17 14 18 16 15 21 21 19 21 18 19 24 21 20 19 14 10 9 9 9 11 14 15 17 18 12 14 14 11 11 10 7 6 5 7 6 6 10 9 12 20 22
4 5 6 6 6 8 8 7 7 7 8 8 3 6 6 1 4 2 2 4 2 4 7 8 9 11 13 12 11 12 11 11 14 14 13 14 12 11 12 10 9 8 8 10 15 23 20 13 17 16 12 20 24 20 15 11 16 24 22 21 22 20 15 11 12 14 14 14 15 16 9 6 14 17 13 11 8 7 5 4 6 6 4 8 8 10 18 21
3 5 6 6 6 7 7 6 5 5 7 5 6 6 3 4 4 5 2 3 0 2 7 8 9 11 11 11 12 12 10 11 14 14 12 10 6 4 4 5 9 9 8 8 7 18 19 11 16 17 11 16 20 20 18 14 12 16 22 25 22 19 18 16 14 17 17 12 13 18 11 12 17 15 12 11 10 7 5 3 5 5 3 6 7 9 15 19
5 6 5 7 9 7 5 5 3 2 8 7 6 1 5 3 3 4 1 1 1 4 6 7 8 9 9 11 13 13 12 12 14 13 11 8 6 3 2 5 12 13 10 8 8 9 13 10 13 15 13 14 16 15 18 20 14 11 18 22 20 20 20 16 12 13 15 10 12 22 20 16 16 12 11 11 9 5 5 4 5 6 4 4 6 8 13 17
6 5 4 9 11 7 4 3 1 4 6 5 2 4 4 3 4 3 1 3 3 4 4 6 8 7 7 10 11 11 12 12 13 13 11 9 6 4 2 4 10 16 18 13 7 5 8 7 10 13 13 14 15 14 18 23 21 15 12 14 18 22 20 16 11 9 12 9 10 21 22 18 17 13 12 11 7 5 4 6 8 7 6 6 6 10 14 16
8 5 4 12 14 9 3 1 2 4 4 4 1 4 3 4 5 3 3 5 4 2 5 3 7 5 5 8 9 9 9 9 12 11 8 6 3 2 3 4 7 14 21 18 9 6 9 8 8 12 12 12 15 17 18 22 25 20 13 13 20 21 18 19 17 13 12 10 9 16 18 13 11 12 12 9 7 5 4 7 11 8 7 8 7 10 15 19
7 3 8 15 16 7 3 3 2 5 6 2 4 4 3 4 4 3 3 5 2 2 4 3 3 4 4 6 7 8 7 6 9 8 5 4 2 2 5 7 6 10 18 20 12 7 10 10 5 10 12 13 15 19 16 14 22 25 18 16 20 18 16 19 22 20 15 10 8 10 10 10 10 11 10 9 7 5 5 9 12 10 8 8 7 9 15 22
5 2 9 14 14 5 7 5 3 4 2 2 3 2 3 3 3 4 1 2 1 1 2 2 1 2 3 4 4 6 5 4 6 5 4 4 3 2 5 8 7 7 11 16 12 8 10 11 6 9 13 15 14 19 16 7 10 18 20 21 22 21 18 14 17 23 20 16 13 8 7 10 11 10 10 9 6 5 6 8 12 11 9 8 7 7 11 20
4 5 10 14 9 6 8 4 2 1 1 2 2 1 2 2 2 2 1 2 2 0 1 2 2 2 2 1 2 4 5 4 4 3 3 4 6 6 6 8 9 7 5 8 9 10 12 13 10 6 8 9 11 19 22 12 9 10 12 16 19 22 25 19 15 20 22 23 17 5 10 9 11 11 10 9 6 5 7 7 11 11 9 8 8 7 7 16
4 5 8 9 4 11 7 0 2 3 1 2 2 1 2 2 3 2 1 2 2 1 2 3 5 5 4 3 2 4 4 3 3 3 3 3 7 9 10 10 9 4 2 4 5 9 13 14 12 6 3 5 6 13 19 14 13 13 11 11 12 15 22 23 16 13 17 23 19 8 9 8 12 12 10 9 8 6 6 7 10 10 9 9 8 7 6 13
2 2 6 8 5 10 4 1 2 3 2 3 2 2 3 4 4 4 3 2 3 3 3 4 4 4 5 5 4 4 5 3 4 4 4 3 6 9 10 10 7 3 4 7 6 6 9 10 12 11 7 7 6 8 14 14 14 17 16 14 13 12 14 16 14 10 10 18 22 11 6 11 14 12 10 9 9 7 6 7 9 9 8 8 8 8 7 10
2 2 5 8 7 7 2 2 3 3 4 5 4 3 2 2 4 5 5 3 4 3 2 4 4 3 4 5 4 4 4 3 4 6 5 4 6 8 9 9 7 5 6 8 8 7 3 3 7 8 8 7 5 4 9 14 17 18 15 12 13 14 14 14 15 14 12 15 16 6 11 17 15 13 13 11 10 9 7 6 6 7 7 7 6 7 8 9
3 2 2 5 7 6 3 4 4 3 4 3 3 3 3 2 1 3 4 3 3 4 3 2 3 3 3 4 4 4 3 2 4 6 5 4 4 7 8 7 7 7 7 6 8 5 1 3 3 3 3 2 3 3 1 8 16 17 13 10 11 14 14 14 18 17 15 14 9 2 12 18 18 17 17 13 11 10 8 6 6 6 7 7 6 6 7 8
2 1 1 0 3 5 5 5 4 2 3 2 2 2 2 3 2 2 3 2 3 4 3 2 3 2 3 4 4 4 3 4 6 6 5 5 3 5 6 4 4 6 5 5 6 4 3 6 5 3 3 1 4 4 1 2 8 11 9 8 9 10 12 16 20 17 13 13 7 9 14 19 22 21 17 15 14 12 9 7 6 5 6 6 6 6 6 7
2 0 1 3 3 2 2 3 4 4 3 3 4 4 3 3 3 4 5 3 2 3 1 1 3 2 3 4 3 3 4 4 5 6 4 3 3 3 3 4 6 6 4 4 6 7 5 6 5 4 4 3 3 4 2 1 3 5 5 5 6 7 10 15 18 14 12 13 10 17 19 21 24 21 16 15 14 11 10 8 7 7 6 7 7 7 7 7
3 2 2 4 4 2 3 5 6 5 5 6 6 5 4 4 4 4 5 5 3 3 3 3 3 2 3 3 3 4 5 3 3 6 6 3 3 4 2 4 5 5 4 5 6 8 8 6 5 5 4 4 4 5 5 4 5 6 7 6 5 5 6 9 11 10 11 11 13 20 21 22 23 19 15 14 12 10 9 8 7 7 8 10 10 8 7 6
2 2 4 5 4 4 6 6 5 4 5 7 6 5 6 6 4 4 6 6 5 5 6 6 5 5 5 4 5 6 5 5 4 5 8 4 2 4 3 3 3 5 4 3 4 5 8 7 7 7 6 7 6 6 6 6 6 7 7 7 7 6 6 6 7 6 6 11 18 22 22 22 20 17 15 14 12 10 9 8 8 8 9 12 11 9 8 7
3 2 5 6 3 3 6 5 4 5 5 5 5 5 6 5 5 5 5 7 9 7 6 6 6 6 5 5 6 4 3 4 4 3 6 4 1 3 2 4 3 3 4 2 2 5 7 5 6 7 9 9 7 6 6 6 8 9 10 9 9 8 7 7 7 6 10 17 21 21 21 20 18 16 15 13 12 10 9 11 13 13 13 14 13 12 10 9
5 4 5 6 3 3 5 4 2 3 2 3 6 7 6 5 5 6 4 4 7 7 6 6 5 4 5 4 3 3 3 4 3 3 5 3 1 2 1 2 2 1 1 1 1 4 6 5 5 8 11 9 7 6 6 7 9 10 11 10 8 8 6 6 6 5 8 16 18 17 18 18 17 17 16 13 12 11 10 13 16 16 15 15 14 14 12 11
Wind_Direction
308 305 303 299 295 291 287 284 281 277 274 271 268 264 261 259 257 256 257 258 258 255 251 247 244 243 241 239 237 233 232 232 232 228 225 225 220 217 213 203 203 199 197 199 198 197 198 199 200 202 203 207 203 207 226 224 243 250 297 300 348 40 23 27 30 42 160 158 143 140 139 144 149 151 153 153 152 151 140 135 140 141 141 153 163 161 161 159
315 310 307 302 299 296 291 288 283 279 276 272 271 267 263 261 259 256 253 254 255 256 255 251 246 242 241 241 239 235 234 233 233 230 228 228 222 218 214 203 201 197 197 194 190 191 195 196 194 198 197 202 205 204 225 228 232 233 263 299 11 62 36 38 26 20 138 169 151 144 143 144 153 150 151 153 154 151 135 136 146 136 144 156 157 158 164 161
325 319 314 308 304 299 295 292 288 285 280 275 271 268 266 262 260 259 255 251 249 251 254 253 250 245 240 240 239 237 235 235 236 231 227 229 223 220 215 204 201 193 186 182 181 183 190 192 190 196 190 190 207 206 219 225 230 236 232 288 9 76 50 49 19 12 90 164 156 148 148 146 150 146 145 147 148 148 139 146 152 141 147 155 155 158 162 163
329 324 318 314 310 305 300 294 290 288 284 280 275 270 267 263 260 259 256 253 249 247 249 251 251 247 242 240 238 237 235 239 243 231 223 229 224 222 216 205 202 192 184 178 175 177 182 188 187 190 186 191 211 207 212 217 207 225 233 263 58 90 51 57 27 4 83 153 163 148 142 149 148 142 139 138 141 147 144 149 155 148 151 157 158 158 158 165
334 329 323 318 312 307 303 298 294 289 286 283 279 274 268 264 260 257 257 254 250 247 246 247 249 248 245 240 234 234 227 229 244 232 221 227 223 221 216 206 203 194 189 183 176 176 178 185 184 184 188 200 218 213 211 211 203 218 245 259 137 117 53 71 53 356 5 148 175 168 148 152 145 141 139 141 149 155 145 141 155 155 155 164 164 157 156 165
341 337 334 328 320 312 304 300 296 291 288 284 280 277 271 265 260 257 255 252 250 248 245 243 244 245 246 242 235 229 204 198 239 235 221 224 219 218 216 207 204 198 192 188 183 178 177 185 184 183 192 204 221 221 214 216 220 227 246 236 201 211 86 83 69 16 328 143 176 182 167 156 147 143 141 145 153 157 145 139 158 161 153 165 168 158 156 163
343 341 338 334 330 324 315 306 298 292 288 284 282 277 273 269 263 258 254 252 249 246 244 242 241 241 243 241 236 227 204 213 237 236 222 221 215 215 214 208 204 200 196 191 189 183 180 185 184 187 199 207 220 223 220 221 224 222 229 222 208 223 141 106 56 79 297 224 179 188 178 163 153 143 143 147 149 151 147 147 161 159 148 157 167 159 154 162
341 339 336 333 330 327 323 316 307 296 286 282 280 277 274 270 266 262 257 254 249 245 243 240 236 236 238 240 236 225 216 227 232 229 225 219 213 213 212 209 204 201 200 195 192 188 184 186 186 189 201 216 226 220 216 217 222 220 219 221 215 227 199 208 24 108 256 241 183 197 187 170 158 148 149 153 150 149 147 150 158 154 147 151 161 157 154 162
337 336 334 332 329 328 325 319 314 305 291 279 274 274 273 269 266 263 260 258 253 247 243 239 235 232 230 235 231 207 227 234 229 227 226 219 214 212 211 209 204 201 201 196 192 188 187 191 188 186 202 224 231 220 215 214 219 221 219 225 223 226 237 238 221 179 262 249 175 188 182 172 165 156 155 157 151 146 145 151 156 151 146 149 157 155 156 162
334 333 332 331 329 329 327 324 321 311 298 283 271 267 268 268 265 261 258 256 253 249 244 239 234 228 223 228 215 185 240 240 233 228 222 220 216 210 210 206 203 202 201 198 193 188 186 190 189 195 214 224 233 223 213 212 218 223 219 229 233 230 239 234 224 202 231 230 175 173 176 171 167 158 160 162 148 141 148 152 152 152 149 150 157 156 157 162
332 331 330 330 329 330 330 328 326 320 304 287 274 264 261 261 263 261 256 253 251 248 243 238 235 226 219 218 194 194 241 240 235 230 220 220 216 210 209 204 202 199 200 200 195 190 181 183 194 205 214 215 235 229 216 217 226 232 219 230 235 232 238 226 231 214 198 216 181 161 179 176 170 161 163 165 148 144 154 152 149 154 153 153 158 160 160 164
329 329 327 327 327 329 331 330 326 326 315 295 282 269 258 254 257 259 256 252 248 246 241 237 232 225 218 210 199 215 234 235 235 229 217 218 213 210 206 200 199 194 196 198 198 195 181 187 200 196 207 216 228 231 224 221 223 230 220 227 232 232 238 222 219 200 183 223 198 153 176 177 175 170 166 167 155 152 158 155 152 155 157 158 161 163 164 167
326 326 325 324 325 327 329 329 325 325 322 310 296 279 263 254 250 252 255 252 247 243 239 233 227 224 213 202 213 221 227 231 233 228 218 215 208 209 204 197 195 191 190 192 196 196 188 199 196 190 219 217 207 232 225 214 216 225 224 226 228 231 231 212 207 190 175 224 215 153 160 168 177 179 173 174 168 162 160 159 158 158 160 164 165 166 168 171
326 326 325 323 323 324 326 325 323 323 321 315 307 295 277 259 247 245 248 248 247 241 238 232 222 221 209 208 222 221 222 229 230 226 220 213 205 205 203 197 193 190 189 187 192 196 197 202 189 188 221 202 205 247 222 209 216 219 224 224 222 228 220 203 204 191 181 212 202 144 132 160 181 185 182 182 177 171 166 163 166 163 162 167 169 169 172 173
329 328 326 324 323 323 324 321 319 321 320 313 309 308 295 271 252 243 240 243 244 239 238 229 219 215 208 224 234 221 222 228 226 221 216 210 204 200 200 199 194 192 191 186 192 200 201 199 188 189 210 202 218 247 211 212 215 211 220 218 218 228 206 187 201 192 188 200 184 156 114 152 177 178 183 186 178 178 173 164 170 171 165 169 172 173 174 173
332 330 329 327 324 324 322 318 318 320 318 312 309 315 312 289 261 243 237 237 237 237 234 226 222 207 190 223 232 220 221 221 217 213 206 205 202 197 195 196 197 198 195 191 199 204 199 195 192 191 200 209 222 223 203 210 209 208 219 217 215 220 200 188 207 199 192 190 177 176 147 154 166 168 183 188 182 182 175 162 168 174 167 170 173 175 176 175
333 331 330 327 326 324 320 316 318 319 314 311 309 315 317 299 268 247 236 230 230 232 228 223 215 194 192 220 225 217 211 207 213 208 198 196 197 199 193 190 196 199 198 201 205 204 201 197 193 194 203 211 218 216 209 208 204 203 213 222 217 214 212 205 201 196 193 186 175 176 174 157 152 158 176 186 183 178 172 165 170 174 169 172 174 176 179 179
332 332 330 328 326 322 319 316 317 317 314 310 306 314 318 301 267 245 232 227 223 211 220 223 191 186 217 226 221 213 200 199 209 205 197 192 196 201 193 187 193 196 199 206 207 203 202 199 196 201 208 212 213 211 213 210 205 201 206 220 219 215 220 204 183 194 194 188 193 188 177 169 161 164 165 176 180 176 171 167 171 173 171 174 175 177 181 182
333 332 329 327 324 319 318 315 316 319 313 308 305 314 319 298 270 256 235 223 201 155 110 225 176 157 213 194 172 177 191 203 203 199 199 196 198 198 191 190 190 190 195 202 205 202 198 194 199 207 208 210 209 208 213 211 208 210 209 217 219 216 216 191 157 185 193 195 206 201 183 183 187 184 173 165 167 173 176 170 167 171 169 172 176 179 182 184
335 333 331 330 325 321 319 318 323 323 312 309 309 322 348 353 353 314 255 218 191 169 181 203 172 153 152 163 169 183 196 202 190 192 201 197 194 189 191 194 183 181 187 196 204 200 195 196 203 209 208 210 209 208 217 223 234 230 213 216 223 219 217 203 170 175 195 207 209 202 189 186 193 194 184 171 161 165 174 173 170 171 169 172 177 179 182 186
340 339 340 336 332 330 325 325 330 324 316 314 310 339 15 318 219 250 254 239 224 204 202 199 179 182 189 174 184 197 199 191 179 191 202 194 184 181 190 189 179 184 187 190 198 194 199 208 210 211 209 211 212 213 221 232 246 245 220 214 217 218 220 211 192 182 198 209 212 207 200 198 209 203 187 180 171 159 162 173 175 175 173 174 179 180 182 186
351 352 349 344 343 340 335 332 327 323 322 316 319 7 342 242 195 208 225 106 269 237 221 210 193 191 197 187 189 189 180 185 187 192 200 191 175 179 194 188 183 192 189 186 191 190 203 214 213 212 210 212 215 213 220 229 226 233 227 211 213 215 199 171 181 192 197 205 211 210 210 215 211 200 186 180 175 158 160 165 167 175 178 178 181 184 185 185
3 3 360 356 353 351 349 342 330 328 321 317 329 352 286 240 191 206 164 128 260 253 236 216 197 194 203 203 209 191 172 189 192 189 200 190 171 178 195 192 190 195 191 190 193 194 205 215 212 210 209 211 214 210 213 219 217 225 224 208 212 213 200 191 203 201 200 214 217 205 212 221 200 190 189 184 178 174 175 164 158 170 180 184 186 189 190 188
12 11 10 6 3 4 356 345 339 332 322 325 332 302 288 228 185 173 151 135 235 240 231 202 185 182 200 208 208 184 171 192 191 192 203 187 175 187 196 196 197 200 199 197 201 203 211 215 209 209 209 208 211 206 205 209 212 220 223 213 211 210 212 224 213 190 194 220 224 199 209 211 193 189 187 181 184 188 187 177 169 173 178 186 190 192 194 192
20 18 19 13 11 7 355 353 349 338 339 346 346 335 313 179 195 153 147 164 184 204 234 196 178 181 202 202 184 168 177 198 191 200 207 184 181 193 196 201 202 204 204 199 206 214 216 213 206 208 206 203 206 203 203 210 214 219 223 221 220 216 211 199 174 186 193 209 207 197 217 206 192 198 188 177 183 187 193 194 188 188 189 189 189 192 194 197
29 26 27 21 18 11 1 1 353 357 16 359 356 357 184 167 168 143 142 202 174 142 179 175 176 191 201 192 168 160 187 189 176 196 204 181 184 198 201 206 205 208 207 199 209 219 217 210 202 203 199 198 205 206 204 209 217 223 219 218 227 231 214 197 195 211 212 212 202 202 229 215 189 193 173 165 174 178 188 202 201 202 205 199 193 193 194 196
36 33 33 28 26 20 10 4 359 24 35 312 340 20 137 146 155 140 143 224 159 122 146 143 151 178 171 172 171 174 190 181 171 187 193 177 181 202 207 206 208 212 208 200 210 217 211 202 194 195 195 199 206 208 204 204 216 229 215 209 222 239 221 204 206 222 222 208 180 194 225 228 190 169 142 155 167 170 179 198 207 206 209 207 201 198 194 194
40 37 36 33 32 28 21 15 15 33 25 272 31 50 137 148 149 135 300 233 124 116 158 151 171 177 157 170 178 186 187 183 189 189 185 181 177 187 199 204 210 213 205 201 209 206 201 198 191 195 199 204 208 207 202 201 212 224 198 195 209 220 210 199 211 227 225 217 197 196 219 225 184 160 155 165 167 167 172 183 201 210 212 209 205 202 194 191
44 41 41 39 37 35 30 30 38 43 29 42 65 89 139 145 124 115 267 249 102 131 160 169 197 176 164 174 177 187 181 186 201 181 179 193 183 180 196 207 209 212 204 207 215 200 194 202 196 197 205 209 208 205 201 201 205 209 183 194 208 211 208 213 225 227 229 232 222 203 207 210 171 164 175 169 167 173 173 170 181 205 214 211 210 205 194 192
46 43 45 45 42 43 43 43 46 46 52 69 91 109 126 124 60 292 253 96 115 146 142 160 179 164 169 173 174 185 181 178 174 162 175 197 187 188 207 204 203 214 205 212 228 212 192 205 203 203 210 209 207 205 202 203 206 209 199 198 209 212 214 223 232 229 229 230 223 217 209 202 179 169 175 166 163 163 164 164 169 198 208 211 214 206 195 196
48 46 49 49 45 45 45 44 44 52 78 88 101 108 100 92 298 281 267 97 127 145 147 163 164 168 176 173 178 183 182 183 170 167 175 183 188 198 210 200 199 216 204 208 227 216 191 201 204 206 210 208 207 204 201 204 211 216 207 197 204 203 208 218 222 225 231 220 214 218 216 209 203 175 164 165 166 159 156 157 169 197 202 203 205 204 199 198
51 50 52 51 50 48 47 46 46 61 83 87 93 94 66 293 263 303 84 132 155 145 170 181 165 176 182 179 182 181 183 184 176 182 180 179 192 195 201 204 198 207 206 201 210 204 196 208 210 209 207 201 202 200 198 200 209 214 208 204 204 192 193 209 209 212 226 223 210 208 220 224 191 148 150 151 150 159 159 167 187 195 208 207 198 200 203 198
54 51 52 52 51 54 55 55 58 69 80 78 79 82 351 285 288 46 65 146 174 160 181 181 169 177 185 184 180 178 187 185 180 193 189 185 195 190 201 221 209 209 214 206 205 200 198 208 207 205 201 196 202 201 196 195 204 208 205 206 208 195 189 202 204 205 215 223 217 208 214 206 130 125 142 139 133 141 144 173 191 186 211 211 199 204 204 196
55 48 47 46 44 50 51 55 72 79 78 72 67 41 265 277 73 77 44 76 147 177 178 177 175 178 180 179 176 177 184 181 180 188 184 189 199 194 202 223 217 217 232 223 210 201 198 200 193 196 201 198 202 203 195 197 208 208 207 212 215 211 200 192 206 211 199 208 215 207 204 185 144 142 141 133 133 143 148 167 177 167 194 195 187 211 209 199
45 38 38 36 40 46 35 34 66 84 84 71 26 284 277 10 71 38 55 91 116 169 174 180 184 184 178 174 180 184 183 181 183 186 187 193 202 195 189 198 209 227 260 249 212 200 206 201 180 186 197 194 199 207 210 219 213 205 207 217 220 217 213 211 216 212 200 203 208 199 190 130 137 141 134 134 131 143 158 159 160 154 168 170 166 198 206 201
8 13 21 12 3 7 7 15 41 85 78 42 286 278 348 52 37 6 49 121 67 160 170 184 188 187 181 177 189 191 185 184 185 190 192 184 179 177 170 197 218 235 268 289 254 210 205 172 158 179 188 189 200 212 217 222 216 203 204 214 220 217 218 228 223 208 207 212 198 187 159 109 127 135 135 134 114 126 156 148 171 178 167 152 156 183 191 191
355 350 348 350 349 339 342 2 352 68 58 13 298 331 47 39 10 359 59 167 238 161 168 191 193 196 191 185 190 188 186 186 182 186 190 176 159 161 207 226 225 232 243 278 301 234 199 156 156 187 196 192 203 209 209 216 225 221 210 211 218 218 221 238 240 211 209 216 197 190 176 155 158 152 148 142 109 117 160 158 186 207 204 166 145 164 171 174
8 2 326 327 337 340 332 333 358 74 47 353 334 61 42 31 32 18 143 148 152 168 225 223 193 202 204 187 184 181 181 182 183 189 191 188 180 164 201 225 219 225 227 236 279 264 214 181 161 185 199 194 199 205 207 214 222 234 235 217 214 215 215 226 248 237 213 212 206 194 182 178 184 169 157 157 129 119 146 165 185 202 207 199 169 156 158 168
23 28 275 292 316 338 348 247 101 55 341 297 99 93 70 59 43 31 139 143 151 231 296 251 179 191 190 181 180 176 180 182 188 198 189 180 185 162 194 206 206 217 219 223 252 269 247 235 173 177 194 188 191 201 205 208 213 229 253 231 217 219 215 214 230 244 223 211 212 192 172 162 173 160 148 148 138 131 136 165 185 199 201 205 203 181 174 176
28 16 249 275 306 338 76 97 39 340 308 313 75 92 98 75 46 31 128 149 181 295 347 26 183 191 154 167 176 173 191 194 184 195 189 172 181 196 208 208 206 219 216 215 230 251 250 253 201 161 178 189 190 197 204 205 207 215 227 221 212 215 220 216 220 230 229 215 212 199 162 122 127 140 139 137 140 137 132 162 182 197 205 209 218 208 195 189
48 345 259 282 312 8 80 55 343 310 304 88 73 94 165 130 60 24 56 128 139 290 15 50 156 158 139 165 168 168 192 188 169 182 191 172 158 170 215 209 193 198 210 211 219 232 241 249 224 164 183 201 190 189 203 200 185 203 214 214 210 210 216 220 218 221 226 229 227 202 144 126 129 138 136 131 139 128 117 159 181 188 199 207 214 219 205 195
24 300 265 282 315 58 76 26 320 26 83 152 125 111 183 158 51 15 29 61 49 11 101 111 140 154 198 202 133 163 178 164 165 177 165 170 182 191 198 189 169 154 176 206 216 221 227 237 239 202 187 193 174 188 207 200 162 183 208 216 218 215 215 220 222 219 224 236 236 153 111 133 140 140 140 135 140 126 110 146 173 177 183 187 194 208 205 192
359 301 278 292 11 86 90 3 112 86 83 174 163 144 146 98 47 19 47 63 49 70 101 135 156 175 203 210 177 180 173 151 162 164 142 184 212 208 193 173 155 129 153 191 207 217 217 224 238 240 160 152 164 201 218 214 194 202 217 227 234 225 218 221 230 233 233 234 224 167 117 144 147 143 146 140 132 122 123 146 162 169 179 179 176 181 187 188
349 350 338 332 52 88 77 10 97 99 105 109 111 145 154 141 109 75 61 83 88 81 93 115 134 159 173 181 188 188 187 178 168 163 146 167 206 204 191 177 160 136 181 183 185 205 209 217 228 228 205 190 189 203 214 216 213 217 221 227 239 240 234 240 249 255 249 236 231 222 149 149 157 151 147 145 137 126 123 140 154 162 173 176 169 163 164 179
340 340 352 355 43 82 100 120 105 109 115 107 102 100 98 163 153 121 94 87 92 94 111 117 117 134 150 164 175 178 193 191 170 172 155 156 199 201 196 197 194 191 193 189 185 185 202 243 230 230 225 212 205 197 200 203 206 213 218 225 236 238 239 250 253 245 237 240 249 248 124 139 153 154 154 155 142 127 112 112 142 157 163 171 170 158 154 163
353 301 332 4 38 68 99 106 102 122 131 118 103 97 78 67 142 145 111 97 110 104 94 120 129 130 151 165 161 156 172 167 162 171 153 138 189 208 206 212 212 205 203 201 194 187 267 270 229 256 264 266 347 351 221 200 199 201 210 215 225 233 233 241 246 242 239 242 250 126 136 151 151 154 163 161 144 139 131 109 115 142 159 170 173 162 153 151
44 285 217 99 61 53 54 67 75 120 151 161 135 106 97 79 41 40 85 107 154 120 89 121 126 127 167 162 152 143 130 123 138 150 153 156 187 221 221 230 236 221 213 218 213 207 274 250 224 247 261 307 352 338 355 195 191 189 202 210 216 228 227 230 235 239 251 254 216 147 160 160 150 156 166 158 150 151 143 122 109 132 160 164 161 160 157 152
79 246 136 134 110 52 52 85 81 82 101 129 121 95 98 103 75 64 62 52 123 124 93 133 121 122 154 151 162 157 132 134 149 149 151 164 183 212 247 275 272 257 253 267 244 223 240 249 223 224 244 241 272 271 256 252 211 199 214 218 218 229 226 228 234 238 257 258 197 152 152 150 149 158 164 158 155 150 141 132 117 114 129 140 145 150 152 152
64 55 79 104 111 120 125 103 92 92 100 108 108 99 99 97 87 82 62 42 58 101 99 114 115 111 132 136 143 141 138 143 162 171 171 165 185 201 242 277 286 296 281 273 268 235 224 241 233 223 240 238 241 251 242 243 242 231 232 231 225 226 222 224 232 239 248 236 182 157 151 149 152 157 162 165 164 154 147 137 122 119 127 138 146 150 152 152
105 109 92 88 91 102 97 85 85 91 84 90 100 102 97 96 98 97 74 60 65 78 91 104 102 97 111 120 112 117 137 129 116 178 191 188 212 220 242 249 268 326 311 260 273 231 210 241 255 234 233 240 241 245 238 234 237 230 227 229 224 220 220 217 217 216 190 158 152 153 150 148 152 154 160 167 163 157 155 139 136 146 145 146 150 150 151 154
115 126 110 98 69 74 89 89 101 100 78 79 105 112 105 111 114 99 88 92 95 89 89 98 98 95 100 111 115 119 146 131 106 173 188 177 182 197 230 244 239 319 332 286 248 207 206 248 253 221 232 239 227 231 237 229 235 237 229 222 216 214 217 210 200 192 168 154 150 151 151 152 155 157 161 167 164 159 159 158 165 170 163 159 158 153 152 153
93 86 106 105 52 36 80 78 77 109 120 122 128 124 121 129 120 101 93 101 104 104 100 98 97 93 90 97 131 169 186 179 192 206 186 181 186 179 224 266 226 212 2 2 247 211 218 242 226 214 230 224 195 210 229 218 229 235 221 210 206 205 204 193 183 181 181 175 166 158 159 160 163 166 165 165 165 160 159 169 179 182 177 172 166 162 161 158